Погода в Уилмингтоне

США     39°44′45″N   75°32′50″W
темп.,
°C
ветер,
м/с
пор.,
м/с
влажн.,
%
обл.,
%
осадки,
мм/ч
давл.,
гПа
погр.,
м
21 октября, чт
чт2123:00+16зюз25725 0.0 101892
02:00+15зюз25725 0.0 101893
05:00+14з22705 0.0 101742
08:00+14зюз22685 0.0 101742
11:00+20ююз344873 0.0 1017441
14:00+24ююз46363 0.0 10141249
17:00+21юз48450 0.0 1012683
20:00+17ю312562 0.0 1012306
22 октября, пт
пт2223:00+18ююз515581 0.0 1010682
02:00+17зюз3116727 0.1 1010407
05:00+16з39830 0.0 1011631
08:00+13з397631 0.0 1013481
11:00+17з35577 0.0 1014859
14:00+19зсз344814 0.0 10131563
17:00+17зсз3557100 0.0 1014736
20:00+15сз3669100 0.0 1015430
23 октября, сб
сб2323:00+14сз3668100 0.0 1015396
02:00+14сз236999 0.0 1015240
05:00+14зсз2471100 0.0 1015234
08:00+13зсз2474100 0.0 1016330
11:00+15сз356239 0.0 1017669
14:00+16зсз475213 0.0 10161340
17:00+16з475765 0.1 10161272
20:00+13з25716 0.1 1017232
24 октября, вс
вс2423:00+12з267746 0.0 1018245
02:00+11з2578100 0.0 1019156
05:00+11зюз127588 0.0 102096
08:00+12всв0082100 0.3 102065
11:00+13юв128035 0.0 1020162
14:00+20ю265118 0.0 10171154
17:00+20юз2455100 0.0 1015254
20:00+17ссв2370100 0.1 1016122
25 октября, пн
пн2523:00+15ссв3591100 1.3 1016239
02:00+14ссв3593100 1.7 1016282
05:00+13всв369394 0.2 1016379
08:00+12всв4990100 0.2 1017507
11:00+13всв5883100 0.0 1017667
14:00+13всв51088100 0.8 1015674
17:00+13в41295100 7.3 1014661
20:00+13всв51096100 9.1 1013518